SCP
0 0 -0 -0 -0 -0 0 0 0 0 0 0 0 0 0 0 0 0 0 0 0 0 0 0 0 0 0 0 0 0 0 0 0 0 0 0 0 0 0 0 0 -0 0
0 -0 -0 -0 -0 -0 0 0 0 0 0 0 0 0 0 0 0 0 0 0 0 0 0 0 0 0 0 0 0 0 0 0 0 0 0 0 0 0 0 0 0 0 0
0 0 -0 -0 -0 -0 0 0 0 0 0 0 0 0 0 0 0 0 0 0 0 0 0 0 0 0 0 0 0 0 0 0 0 0 0 0 0 0 0 0 0 0 0
0 0 0 0 0 -0 0 0 0 0 0 0 0 0 0 0 0 0 0 0 0 0 0 0 0 0 0 0 0 0 0 0 0 0 0 0 0 0 -0 0 0 0 0
0 0 0 0 0 0 -0 -0 0 0 0 0 0 0 0 0 0 0 0 0 0 0 0 0 0 0 -0 0 0 0 0 0 0 0 0 0 0 0 0 0 0 0 0
0 0 0 0 0 0 0 0 0 0 0 0 0 0 -0 -0 0 -0 0 0 0 -0 -0 -0 -0 -0 -0 -0 -0 0 0 0 0 0 0 0 0 0 0 0 0 -0 0
0 0 0 0 0 0 0 -0 0 0 0 0 0 0 0 0 -0 -0 -0 0 -0 -0 -0 -0 0 -0 -0 -0 -0 -0 -0 0 0 0 0 0 0 0 0 -0 -0 -0 0
-0 0 0 0 -0 0 0 0 0 0 -0 0 0 0 -0 0 0 -0 0 0 0 0 0 0 0 -0 -0 0 0 0 0 0 -0 -0 -0 -0 0 0 0 0 0 0 0
-0 -0 -0 0 -0 -0 -0 0 0 0 0 0 -0 -0 0 0 0 0 0 0 0 0 0 0 0 0 0 0 0 -0 -0 -0 -0 -0 -0 -0 0 -0 -0 0 0 0 0
-0 -0 -0 -0 -0 -0 -0 -0 -0 -0 0 0 0 0 0 0 0 -0 -0 0 -0 -0 -0 -0 -0 -0 -0 0 0 0 -0 -0 -0 -0 0 0 0 0 -0 0 0 0 0
0 0 -0 -0 -0 -0 -0 -0 0 0 0 0 0 -0 -0 -0 -0 -0 -0 -0 -0 0 0 0 0 0 0 0 0 0 0 0 0 0 0 0 0 0 0 0 0 0 0
0 0 0 0 -0 -0 -0 -0 -0 -0 -0 -0 -0 -0 0 0 -0 0 0 0 0 0 0 0 0 0 0 0 0 0 0 0 0 0 0 0 0 0 0 0 0 0 0
0 0 0 0 0 0 0 0 0 0 -0 -0 -0 -0 -0 -0 0 0 0 0 0 0 0 0 0 0 0 0 0 0 0 0 0 0 0 0 0 0 0 0 0 0 0
0 0 0 0 0 0 0 0 0 0 0 0 0 0 0 0 0 0 0 0 0 0 0 0 0 0 0 0 0 0 0 0 0 0 0 0 0 0 0 0 0 0 0
0 0 0 0 0 0 0 0 0 0 0 0 0 0 0 0 0 0 0 0 0 0 0 0 0 0 0 0 0 0 0 0 0 0 0 0 0 0 0 0 0 0 0
0 0 0 0 0 0 0 0 0 0 0 0 0 0 0 0 0 0 0 0 0 0 0 0 0 0 0 0 0 0 0 0 0 0 0 0 0 0 0 0 0 0 0
0 0 0 0 0 0 0 0 0 0 0 0 0 0 0 0 0 0 0 0 0 0 0 0 0 0 0 0 0 0 0 0 0 0 0 0 0 0 0 0 0 0 0
0 0 0 0 0 0 0 0 0 0 0 0 0 0 0 0 0 0 0 0 0 0 0 0 0 0 0 0 0 0 0 0 0 0 0 0 0 0 0 0 0 0 0
0 0 0 0 0 0 0 0 0 0 0 0 0 0 0 0 0 0 0 0 0 0 0 0 0 0 0 0 0 0 0 0 0 0 0 0 0 0 0 0 0 0 0
0 0 0 0 0 0 0 0 0 0 0 0 0 0 0 0 0 0 0 0 0 0 0 0 0 0 0 0 0 0 0 0 0 0 0 0 0 0 0 0 0 0 0
0 0 0 0 0 0 0 0 0 0 0 0 0 0 0 0 0 0 0 0 0 0 0 0 0 0 0 0 0 0 0 0 0 0 0 0 0 0 0 0 0 0 0
0 0 0 0 0 0 0 0 0 0 0 0 0 0 0 0 0 0 0 0 0 0 0 0 0 0 0 0 0 0 0 0 0 0 0 0 0 0 0 0 0 0 0
0 0 0 0 0 0 0 0 0 0 0 0 0 0 0 0 0 0 0 0 0 0 0 0 0 0 0 0 0 0 0 0 0 0 0 0 0 0 0 0 0 0 0
0 0 0 0 0 0 0 0 0 0 0 0 0 0 0 0 0 0 0 0 0 0 0 0 0 0 0 0 0 0 0 0 0 0 0 0 0 0 0 0 0 0 0
0 0 0 0 0 0 0 0 0 0 0 0 0 0 0 0 0 0 0 0 0 0 0 0 0 0 0 0 0 0 0 0 0 0 0 0 0 0 0 0 0 0 0
0 0 0 0 0 0 0 0 0 0 0 0 0 0 0 0 0 0 0 0 0 0 0 0 0 0 0 0 0 0 0 0 0 0 0 0 0 0 0 0 0 0 0
Wind_Speed_500mb
15 16 16 13 8 4 3 7 8 9 13 9 10 14 30 41 44 39 36 33 35 38 40 41 38 40 31 29 27 27 27 24 18 11 15 17 12 13 9 5 5 1 4
16 15 16 15 10 4 6 8 6 9 11 16 21 19 23 42 37 34 27 26 26 28 31 33 24 17 27 27 23 17 19 15 16 12 15 21 20 19 14 12 7 5 5
15 17 15 13 10 2 7 12 13 13 14 14 18 26 27 25 26 29 26 18 11 32 32 35 24 17 28 26 19 12 15 15 12 9 12 22 24 23 20 13 9 11 6
14 17 17 16 13 3 10 11 13 16 20 25 23 19 20 24 27 28 25 17 22 15 11 11 16 14 16 19 19 13 13 9 11 10 10 16 25 22 17 19 19 18 12
16 17 18 21 19 17 14 16 16 16 23 29 24 28 25 24 23 23 20 17 19 16 16 22 18 17 15 11 10 10 11 13 13 13 14 19 25 26 27 24 24 21 17
15 18 20 24 23 21 21 24 21 21 22 22 23 25 31 29 27 23 21 20 31 23 19 16 18 21 16 12 10 11 10 11 14 18 19 23 25 26 30 29 29 28 20
16 18 23 24 25 24 26 24 28 28 27 26 28 27 27 26 21 16 16 15 16 19 18 14 13 11 12 10 9 11 13 15 16 17 20 22 23 22 26 33 30 24 14
16 18 20 24 26 25 26 25 25 29 24 23 24 23 20 17 11 12 11 14 14 15 13 11 9 8 9 8 10 12 16 18 19 21 22 24 24 23 27 27 25 23 26
16 18 20 21 23 24 26 27 23 23 21 18 15 11 10 10 14 16 17 18 14 10 7 6 6 6 7 9 12 13 16 18 19 21 23 23 24 28 29 32 36 35 32
15 16 18 20 21 21 20 19 21 24 22 20 14 11 13 11 10 9 6 3 6 7 9 8 7 8 11 14 17 20 19 20 20 20 22 23 24 27 28 32 32 34 32
18 17 16 16 17 17 19 18 18 20 19 18 14 11 11 17 13 8 8 9 9 10 12 11 13 17 18 18 17 20 21 21 20 20 21 23 25 27 31 36 39 38 35
18 18 18 18 15 14 14 15 16 16 16 16 13 11 12 14 14 13 11 11 10 10 12 14 17 18 18 19 21 22 23 25 24 24 24 26 28 30 33 37 38 40 40
20 17 15 15 15 14 15 15 14 14 14 14 12 10 11 9 11 13 14 15 18 19 19 20 21 22 22 23 24 23 25 27 28 28 29 31 32 34 36 39 40 42 44
22 20 18 15 15 14 14 14 14 14 16 17 17 17 18 17 18 20 21 21 23 26 28 30 31 30 30 30 29 26 26 29 30 30 31 35 37 38 41 43 45 47 51
26 25 22 21 20 18 16 16 16 18 20 20 22 24 26 27 30 31 31 32 34 35 37 38 38 37 36 38 40 38 35 34 34 34 36 37 39 42 44 47 50 53 58
29 28 24 23 22 21 20 20 18 18 19 19 21 22 23 24 26 31 33 34 38 39 40 40 41 40 38 38 39 40 39 39 39 40 42 44 45 46 48 52 55 58 61
29 27 27 28 27 25 24 23 22 23 23 24 25 26 26 28 33 36 38 40 43 46 44 43 42 41 40 40 39 42 41 39 42 43 45 47 49 50 53 55 57 61 64
32 32 31 30 30 30 31 30 30 29 29 27 28 28 28 30 34 38 42 48 50 53 53 50 48 46 44 43 43 43 42 43 44 46 47 49 50 49 51 54 57 60 62
31 31 32 33 35 29 35 37 36 34 29 22 18 20 24 28 34 40 43 46 49 51 51 52 50 49 46 45 48 49 48 47 48 49 52 54 54 55 56 57 55 55 56
36 35 34 30 35 39 36 36 32 32 28 27 17 23 29 42 51 48 46 44 45 45 46 46 44 46 50 52 52 54 57 56 55 54 54 54 56 56 58 58 60 60 60
39 35 36 28 23 30 32 31 28 25 28 28 28 31 39 43 37 37 38 38 40 41 43 45 45 44 45 47 49 49 52 55 56 57 58 58 59 63 61 61 63 65 62
37 35 31 29 30 26 26 26 24 23 27 29 30 34 35 30 30 29 31 31 32 34 35 37 36 35 36 39 41 45 46 46 47 49 52 54 56 59 60 63 64 65 65
29 29 28 23 20 20 23 20 23 22 25 26 26 24 22 22 23 23 24 25 26 27 28 29 31 32 31 31 32 35 39 42 42 43 47 49 49 51 52 55 59 61 63
19 19 18 17 19 18 17 16 17 18 17 15 14 14 13 13 14 16 17 18 20 22 24 25 27 30 31 31 32 35 37 38 39 40 41 43 45 45 46 48 51 53 53
16 17 18 17 18 16 14 12 10 6 4 4 5 6 7 8 9 10 12 14 16 17 18 20 22 25 28 29 31 33 36 37 38 40 41 45 46 46 48 49 50 52 52
17 17 17 16 15 12 8 5 5 6 7 7 6 6 7 8 11 13 14 15 17 19 22 24 25 27 29 30 32 35 37 40 44 45 45 46 47 47 48 49 50 51 51
Wind_Direction_500mb
359 5 12 14 13 345 11 41 43 91 115 108 79 92 135 153 163 173 190 194 194 196 200 209 215 215 214 238 247 263 263 261 277 278 242 234 215 217 213 262 248 105 340
14 34 13 6 9 48 88 111 92 94 133 104 100 114 114 148 164 168 156 159 180 192 209 208 193 219 224 239 261 246 249 256 242 214 219 212 202 203 196 220 215 220 229
27 50 36 18 359 31 112 125 116 96 120 120 119 102 127 137 150 156 158 158 198 201 229 226 236 220 220 229 213 229 241 234 204 221 228 218 211 206 214 219 229 226 230
51 61 43 32 27 53 119 125 114 102 126 124 112 111 138 149 148 148 158 180 144 170 196 222 195 198 209 221 230 218 211 210 218 255 242 223 208 210 212 224 220 218 216
79 76 61 61 58 77 109 126 107 111 117 117 113 96 93 151 172 177 178 187 197 209 197 190 197 217 222 204 204 216 230 237 237 226 233 229 210 220 220 219 216 222 217
93 97 79 72 70 84 107 119 117 109 106 113 109 121 126 117 115 119 131 163 174 172 188 201 215 201 198 193 200 221 229 235 240 239 239 232 236 231 229 221 218 215 210
107 103 101 86 79 77 99 114 127 115 102 114 124 128 120 114 108 123 129 157 155 162 152 152 182 196 195 212 229 249 251 252 253 244 245 251 264 265 239 223 219 220 227
127 127 114 111 102 92 89 108 124 133 119 111 105 104 105 108 120 134 145 136 153 154 156 176 192 201 208 218 232 248 264 270 268 265 262 255 244 233 233 234 230 212 224
144 136 136 123 120 113 113 110 103 106 128 131 125 117 139 148 152 156 156 155 152 148 169 184 188 206 234 249 259 262 264 263 266 263 259 254 249 233 219 216 216 218 226
159 154 149 150 145 138 134 129 129 138 139 137 133 142 155 160 158 189 190 187 200 202 202 214 244 272 281 273 272 267 268 264 263 265 256 249 240 231 222 214 225 232 229
176 170 166 161 158 159 161 162 157 148 147 150 146 165 158 163 165 179 207 220 243 256 243 281 287 297 296 284 291 285 277 273 269 263 252 249 240 231 224 220 219 225 231
190 186 182 182 180 176 180 180 185 189 195 201 209 198 182 180 188 188 196 212 225 250 274 282 291 295 294 290 291 295 287 278 272 263 253 242 241 237 234 230 230 231 234
200 199 198 199 200 201 202 210 214 212 219 227 227 225 228 245 244 240 246 244 243 242 244 252 259 264 272 277 283 287 284 280 277 269 259 247 240 238 236 235 237 239 238
203 203 204 206 213 217 221 229 235 239 244 249 253 257 254 251 252 254 258 262 265 270 275 279 278 279 279 277 276 274 271 268 266 265 263 258 251 246 244 243 244 245 247
214 214 210 210 214 218 223 228 230 239 247 251 253 258 264 268 270 274 277 279 279 279 280 279 281 282 284 285 285 284 281 279 270 262 257 255 253 250 249 250 251 250 252
225 227 227 227 229 230 233 236 239 247 257 260 263 265 268 271 269 272 275 275 276 278 279 280 282 285 285 285 286 287 285 285 284 276 268 261 257 255 252 252 253 255 257
233 234 239 243 244 246 247 248 250 255 256 264 268 274 279 281 284 284 284 284 283 284 285 286 287 288 289 288 286 284 284 282 278 277 276 273 269 265 264 262 261 260 261
238 238 240 244 253 259 261 261 256 253 256 266 275 283 286 286 288 288 288 289 290 293 294 292 292 293 293 291 288 285 284 280 277 275 273 272 272 271 268 267 268 269 268
243 245 247 252 246 245 261 260 259 257 256 247 253 276 285 296 297 294 290 289 289 288 289 290 292 291 286 280 278 277 277 278 277 276 274 273 273 272 272 271 269 269 269
249 240 239 251 262 261 250 245 250 257 254 253 262 271 291 300 296 292 290 291 293 293 293 291 289 286 285 284 280 278 276 274 274 274 275 276 276 275 275 274 273 271 270
225 237 255 271 285 270 256 247 243 236 239 260 270 278 285 290 293 294 295 295 295 295 294 294 293 294 297 294 290 286 281 279 278 277 276 276 278 277 276 274 273 274 273
241 247 245 246 244 258 250 240 238 252 268 280 293 298 298 299 300 301 302 301 298 298 299 299 302 302 301 299 298 296 293 291 288 286 283 280 278 277 277 277 276 276 276
231 237 241 237 232 238 248 253 261 275 288 295 297 295 299 305 309 314 316 317 317 313 310 307 305 303 301 299 298 299 300 299 297 294 293 292 289 285 283 280 279 277 275
219 218 225 224 231 236 242 252 266 281 287 293 300 313 325 333 337 338 337 336 334 331 328 326 322 318 316 315 312 308 305 305 302 298 294 293 293 291 290 289 288 286 284
211 206 210 221 233 234 236 245 258 275 306 337 351 352 1 1 2 357 353 350 347 338 333 333 327 322 320 317 313 309 307 305 303 301 298 296 294 293 293 291 289 288 286
196 200 205 208 208 205 195 169 143 133 121 106 90 73 52 35 23 13 3 356 353 349 344 339 334 330 326 321 313 307 304 302 299 296 295 294 293 295 296 295 294 291 289
Wind_Speed_850mb
15 16 16 13 8 4 3 7 8 9 13 9 10 14 30 41 44 39 36 33 35 38 40 41 38 40 31 29 27 27 27 24 18 11 15 17 12 13 9 5 5 1 4
16 15 16 15 10 4 6 8 6 9 11 16 21 19 23 42 37 34 27 26 26 28 31 33 24 17 27 27 23 17 19 15 16 12 15 21 20 19 14 12 7 5 5
15 17 15 13 10 2 7 12 13 13 14 14 18 26 27 25 26 29 26 18 11 32 32 35 24 17 28 26 19 12 15 15 12 9 12 22 24 23 20 13 9 11 6
14 17 17 16 13 3 10 11 13 16 20 25 23 19 20 24 27 28 25 17 22 15 11 11 16 14 16 19 19 13 13 9 11 10 10 16 25 22 17 19 19 18 12
16 17 18 21 19 17 14 16 16 16 23 29 24 28 25 24 23 23 20 17 19 16 16 22 18 17 15 11 10 10 11 13 13 13 14 19 25 26 27 24 24 21 17
15 18 20 24 23 21 21 24 21 21 22 22 23 25 31 29 27 23 21 20 31 23 19 16 18 21 16 12 10 11 10 11 14 18 19 23 25 26 30 29 29 28 20
16 18 23 24 25 24 26 24 28 28 27 26 28 27 27 26 21 16 16 15 16 19 18 14 13 11 12 10 9 11 13 15 16 17 20 22 23 22 26 33 30 24 14
16 18 20 24 26 25 26 25 25 29 24 23 24 23 20 17 11 12 11 14 14 15 13 11 9 8 9 8 10 12 16 18 19 21 22 24 24 23 27 27 25 23 26
16 18 20 21 23 24 26 27 23 23 21 18 15 11 10 10 14 16 17 18 14 10 7 6 6 6 7 9 12 13 16 18 19 21 23 23 24 28 29 32 36 35 32
15 16 18 20 21 21 20 19 21 24 22 20 14 11 13 11 10 9 6 3 6 7 9 8 7 8 11 14 17 20 19 20 20 20 22 23 24 27 28 32 32 34 32
18 17 16 16 17 17 19 18 18 20 19 18 14 11 11 17 13 8 8 9 9 10 12 11 13 17 18 18 17 20 21 21 20 20 21 23 25 27 31 36 39 38 35
18 18 18 18 15 14 14 15 16 16 16 16 13 11 12 14 14 13 11 11 10 10 12 14 17 18 18 19 21 22 23 25 24 24 24 26 28 30 33 37 38 40 40
20 17 15 15 15 14 15 15 14 14 14 14 12 10 11 9 11 13 14 15 18 19 19 20 21 22 22 23 24 23 25 27 28 28 29 31 32 34 36 39 40 42 44
22 20 18 15 15 14 14 14 14 14 16 17 17 17 18 17 18 20 21 21 23 26 28 30 31 30 30 30 29 26 26 29 30 30 31 35 37 38 41 43 45 47 51
26 25 22 21 20 18 16 16 16 18 20 20 22 24 26 27 30 31 31 32 34 35 37 38 38 37 36 38 40 38 35 34 34 34 36 37 39 42 44 47 50 53 58
29 28 24 23 22 21 20 20 18 18 19 19 21 22 23 24 26 31 33 34 38 39 40 40 41 40 38 38 39 40 39 39 39 40 42 44 45 46 48 52 55 58 61
29 27 27 28 27 25 24 23 22 23 23 24 25 26 26 28 33 36 38 40 43 46 44 43 42 41 40 40 39 42 41 39 42 43 45 47 49 50 53 55 57 61 64
32 32 31 30 30 30 31 30 30 29 29 27 28 28 28 30 34 38 42 48 50 53 53 50 48 46 44 43 43 43 42 43 44 46 47 49 50 49 51 54 57 60 62
31 31 32 33 35 29 35 37 36 34 29 22 18 20 24 28 34 40 43 46 49 51 51 52 50 49 46 45 48 49 48 47 48 49 52 54 54 55 56 57 55 55 56
36 35 34 30 35 39 36 36 32 32 28 27 17 23 29 42 51 48 46 44 45 45 46 46 44 46 50 52 52 54 57 56 55 54 54 54 56 56 58 58 60 60 60
39 35 36 28 23 30 32 31 28 25 28 28 28 31 39 43 37 37 38 38 40 41 43 45 45 44 45 47 49 49 52 55 56 57 58 58 59 63 61 61 63 65 62
37 35 31 29 30 26 26 26 24 23 27 29 30 34 35 30 30 29 31 31 32 34 35 37 36 35 36 39 41 45 46 46 47 49 52 54 56 59 60 63 64 65 65
29 29 28 23 20 20 23 20 23 22 25 26 26 24 22 22 23 23 24 25 26 27 28 29 31 32 31 31 32 35 39 42 42 43 47 49 49 51 52 55 59 61 63
19 19 18 17 19 18 17 16 17 18 17 15 14 14 13 13 14 16 17 18 20 22 24 25 27 30 31 31 32 35 37 38 39 40 41 43 45 45 46 48 51 53 53
16 17 18 17 18 16 14 12 10 6 4 4 5 6 7 8 9 10 12 14 16 17 18 20 22 25 28 29 31 33 36 37 38 40 41 45 46 46 48 49 50 52 52
17 17 17 16 15 12 8 5 5 6 7 7 6 6 7 8 11 13 14 15 17 19 22 24 25 27 29 30 32 35 37 40 44 45 45 46 47 47 48 49 50 51 51
Wind_Direction_850mb
359 5 12 14 13 345 11 41 43 91 115 108 79 92 135 153 163 173 190 194 194 196 200 209 215 215 214 238 247 263 263 261 277 278 242 234 215 217 213 262 248 105 340
14 34 13 6 9 48 88 111 92 94 133 104 100 114 114 148 164 168 156 159 180 192 209 208 193 219 224 239 261 246 249 256 242 214 219 212 202 203 196 220 215 220 229
27 50 36 18 359 31 112 125 116 96 120 120 119 102 127 137 150 156 158 158 198 201 229 226 236 220 220 229 213 229 241 234 204 221 228 218 211 206 214 219 229 226 230
51 61 43 32 27 53 119 125 114 102 126 124 112 111 138 149 148 148 158 180 144 170 196 222 195 198 209 221 230 218 211 210 218 255 242 223 208 210 212 224 220 218 216
79 76 61 61 58 77 109 126 107 111 117 117 113 96 93 151 172 177 178 187 197 209 197 190 197 217 222 204 204 216 230 237 237 226 233 229 210 220 220 219 216 222 217
93 97 79 72 70 84 107 119 117 109 106 113 109 121 126 117 115 119 131 163 174 172 188 201 215 201 198 193 200 221 229 235 240 239 239 232 236 231 229 221 218 215 210
107 103 101 86 79 77 99 114 127 115 102 114 124 128 120 114 108 123 129 157 155 162 152 152 182 196 195 212 229 249 251 252 253 244 245 251 264 265 239 223 219 220 227
127 127 114 111 102 92 89 108 124 133 119 111 105 104 105 108 120 134 145 136 153 154 156 176 192 201 208 218 232 248 264 270 268 265 262 255 244 233 233 234 230 212 224
144 136 136 123 120 113 113 110 103 106 128 131 125 117 139 148 152 156 156 155 152 148 169 184 188 206 234 249 259 262 264 263 266 263 259 254 249 233 219 216 216 218 226
159 154 149 150 145 138 134 129 129 138 139 137 133 142 155 160 158 189 190 187 200 202 202 214 244 272 281 273 272 267 268 264 263 265 256 249 240 231 222 214 225 232 229
176 170 166 161 158 159 161 162 157 148 147 150 146 165 158 163 165 179 207 220 243 256 243 281 287 297 296 284 291 285 277 273 269 263 252 249 240 231 224 220 219 225 231
190 186 182 182 180 176 180 180 185 189 195 201 209 198 182 180 188 188 196 212 225 250 274 282 291 295 294 290 291 295 287 278 272 263 253 242 241 237 234 230 230 231 234
200 199 198 199 200 201 202 210 214 212 219 227 227 225 228 245 244 240 246 244 243 242 244 252 259 264 272 277 283 287 284 280 277 269 259 247 240 238 236 235 237 239 238
203 203 204 206 213 217 221 229 235 239 244 249 253 257 254 251 252 254 258 262 265 270 275 279 278 279 279 277 276 274 271 268 266 265 263 258 251 246 244 243 244 245 247
214 214 210 210 214 218 223 228 230 239 247 251 253 258 264 268 270 274 277 279 279 279 280 279 281 282 284 285 285 284 281 279 270 262 257 255 253 250 249 250 251 250 252
225 227 227 227 229 230 233 236 239 247 257 260 263 265 268 271 269 272 275 275 276 278 279 280 282 285 285 285 286 287 285 285 284 276 268 261 257 255 252 252 253 255 257
233 234 239 243 244 246 247 248 250 255 256 264 268 274 279 281 284 284 284 284 283 284 285 286 287 288 289 288 286 284 284 282 278 277 276 273 269 265 264 262 261 260 261
238 238 240 244 253 259 261 261 256 253 256 266 275 283 286 286 288 288 288 289 290 293 294 292 292 293 293 291 288 285 284 280 277 275 273 272 272 271 268 267 268 269 268
243 245 247 252 246 245 261 260 259 257 256 247 253 276 285 296 297 294 290 289 289 288 289 290 292 291 286 280 278 277 277 278 277 276 274 273 273 272 272 271 269 269 269
249 240 239 251 262 261 250 245 250 257 254 253 262 271 291 300 296 292 290 291 293 293 293 291 289 286 285 284 280 278 276 274 274 274 275 276 276 275 275 274 273 271 270
225 237 255 271 285 270 256 247 243 236 239 260 270 278 285 290 293 294 295 295 295 295 294 294 293 294 297 294 290 286 281 279 278 277 276 276 278 277 276 274 273 274 273
241 247 245 246 244 258 250 240 238 252 268 280 293 298 298 299 300 301 302 301 298 298 299 299 302 302 301 299 298 296 293 291 288 286 283 280 278 277 277 277 276 276 276
231 237 241 237 232 238 248 253 261 275 288 295 297 295 299 305 309 314 316 317 317 313 310 307 305 303 301 299 298 299 300 299 297 294 293 292 289 285 283 280 279 277 275
219 218 225 224 231 236 242 252 266 281 287 293 300 313 325 333 337 338 337 336 334 331 328 326 322 318 316 315 312 308 305 305 302 298 294 293 293 291 290 289 288 286 284
211 206 210 221 233 234 236 245 258 275 306 337 351 352 1 1 2 357 353 350 347 338 333 333 327 322 320 317 313 309 307 305 303 301 298 296 294 293 293 291 289 288 286
196 200 205 208 208 205 195 169 143 133 121 106 90 73 52 35 23 13 3 356 353 349 344 339 334 330 326 321 313 307 304 302 299 296 295 294 293 295 296 295 294 291 289